When you browse on this site, cookies collect data to enhance your experience and personalize the content and advertising you see.
Visit our Privacy Policy to learn more. By continuing to use the site, you agree to this use of cookies and data.

Hourly Weather Canillo

Today, 12 August, Wednesday

Time Temperature Precipitation Wind Pressure Humidity
00:00 +14°C° 0 mm 2 mps 620 mmHg 63%
01:00 +14°C° 0 mm 2 mps 619 mmHg 64%
02:00 +14°C° 0 mm 2 mps 619 mmHg 65%
03:00 +14°C° 0 mm 2 mps 619 mmHg 66%
04:00 +14°C° 0 mm 2 mps 619 mmHg 62%
05:00 +15°C° 0 mm 2 mps 619 mmHg 59%
06:00 +15°C° 0 mm 2 mps 619 mmHg 55%
07:00 +16°C° 0 mm 2 mps 620 mmHg 52%
08:00 +18°C° 0 mm 3 mps 620 mmHg 48%
09:00 +20°C° 0 mm 3 mps 621 mmHg 44%
10:00 +19°C° 0.2 mm 3 mps 621 mmHg 52%
11:00 +19°C° 0.2 mm 3 mps 621 mmHg 60%
12:00 +19°C° 0.2 mm 2 mps 620 mmHg 68%
13:00 +19°C° 0.8 mm 2 mps 620 mmHg 66%
14:00 +19°C° 0.8 mm 2 mps 620 mmHg 64%
15:00 +20°C° 0.8 mm 2 mps 620 mmHg 62%
16:00 +18°C° 0.8 mm 2 mps 619 mmHg 69%
17:00 +16°C° 0.8 mm 2 mps 619 mmHg 75%
18:00 +15°C° 0.8 mm 2 mps 619 mmHg 81%
19:00 +14°C° 0.2 mm 2 mps 619 mmHg 84%
20:00 +13°C° 0.2 mm 1 mps 619 mmHg 86%
21:00 +12°C° 0.2 mm 1 mps 619 mmHg 89%
22:00 +12°C° 0 mm 1 mps 619 mmHg 88%
23:00 +12°C° 0 mm 1 mps 619 mmHg 87%

Tomorrow, 13 August, Thursday

Time Temperature Precipitation Wind Pressure Humidity
00:00 +12°C° 0 mm 1 mps 619 mmHg 85%
01:00 +12°C° 0 mm 1 mps 619 mmHg 84%
02:00 +12°C° 0 mm 1 mps 619 mmHg 83%
03:00 +12°C° 0 mm 1 mps 618 mmHg 81%
04:00 +12°C° 0 mm 1 mps 619 mmHg 81%
05:00 +12°C° 0 mm 1 mps 619 mmHg 81%
06:00 +12°C° 0 mm 1 mps 619 mmHg 80%
07:00 +15°C° 0 mm 1 mps 620 mmHg 70%
08:00 +18°C° 0 mm 1 mps 621 mmHg 60%
09:00 +19°C° 0 mm 2 mps 622 mmHg 50%
10:00 +20°C° 0 mm 2 mps 623 mmHg 48%
11:00 +21°C° 0 mm 2 mps 623 mmHg 45%
12:00 +23°C° 0 mm 2 mps 623 mmHg 42%
13:00 +21°C° 0.2 mm 2 mps 623 mmHg 44%
14:00 +21°C° 0.2 mm 3 mps 623 mmHg 45%
15:00 +21°C° 0.2 mm 3 mps 622 mmHg 47%
16:00 +20°C° 0.2 mm 2 mps 622 mmHg 54%
17:00 +19°C° 0.2 mm 2 mps 621 mmHg 61%
18:00 +18°C° 0.2 mm 1 mps 621 mmHg 69%
19:00 +16°C° 0 mm 1 mps 620 mmHg 72%
20:00 +14°C° 0 mm 1 mps 620 mmHg 76%
21:00 +13°C° 0 mm 1 mps 620 mmHg 80%
22:00 +12°C° 0 mm 1 mps 620 mmHg 80%
23:00 +12°C° 0 mm 1 mps 620 mmHg 80%

Day after tomorrow, 14 August, Friday

Time Temperature Precipitation Wind Pressure Humidity
00:00 +12°C° 0 mm 1 mps 620 mmHg 80%
01:00 +12°C° 0 mm 1 mps 620 mmHg 80%
02:00 +11°C° 0 mm 1 mps 620 mmHg 80%
03:00 +11°C° 0 mm 1 mps 620 mmHg 80%
04:00 +12°C° 0 mm 1 mps 620 mmHg 79%
05:00 +12°C° 0 mm 1 mps 620 mmHg 79%
06:00 +13°C° 0 mm 1 mps 620 mmHg 78%
07:00 +15°C° 0 mm 1 mps 621 mmHg 67%
08:00 +19°C° 0 mm 1 mps 622 mmHg 56%
09:00 +22°C° 0 mm 1 mps 623 mmHg 46%
10:00 +23°C° 0 mm 1 mps 623 mmHg 44%
11:00 +23°C° 0 mm 2 mps 623 mmHg 42%
12:00 +24°C° 0 mm 2 mps 623 mmHg 40%
13:00 +24°C° 0.2 mm 2 mps 623 mmHg 43%
14:00 +23°C° 0.2 mm 2 mps 622 mmHg 46%
15:00 +23°C° 0.2 mm 2 mps 622 mmHg 49%
16:00 +21°C° 0.3 mm 2 mps 621 mmHg 56%
17:00 +21°C° 0.3 mm 1 mps 621 mmHg 64%
18:00 +19°C° 0.3 mm 1 mps 620 mmHg 71%
19:00 +18°C° 0.1 mm 1 mps 620 mmHg 75%
20:00 +15°C° 0.1 mm 1 mps 619 mmHg 79%
21:00 +13°C° 0.1 mm 1 mps 619 mmHg 83%
22:00 +13°C° 0 mm 1 mps 619 mmHg 83%
23:00 +13°C° 0 mm 1 mps 619 mmHg 83%

15 August, Saturday

Time Temperature Precipitation Wind Pressure Humidity
00:00 +13°C° 0 mm 1 mps 619 mmHg 84%
01:00 +13°C° 0 mm 1 mps 618 mmHg 83%
02:00 +13°C° 0 mm 1 mps 618 mmHg 82%
03:00 +13°C° 0 mm 1 mps 618 mmHg 81%
04:00 +13°C° 0 mm 1 mps 618 mmHg 78%
05:00 +14°C° 0 mm 2 mps 618 mmHg 75%
06:00 +14°C° 0 mm 2 mps 618 mmHg 72%
07:00 +17°C° 0 mm 2 mps 619 mmHg 61%
08:00 +19°C° 0 mm 2 mps 620 mmHg 51%
09:00 +23°C° 0 mm 2 mps 621 mmHg 40%
10:00 +24°C° 0 mm 2 mps 621 mmHg 38%
11:00 +25°C° 0 mm 3 mps 621 mmHg 36%
12:00 +26°C° 0 mm 3 mps 621 mmHg 34%
13:00 +25°C° 0 mm 3 mps 620 mmHg 37%
14:00 +25°C° 0 mm 3 mps 620 mmHg 39%
15:00 +25°C° 0 mm 4 mps 620 mmHg 42%
16:00 +22°C° 0.3 mm 3 mps 619 mmHg 52%
17:00 +20°C° 0.3 mm 2 mps 618 mmHg 62%
18:00 +19°C° 0.3 mm 1 mps 617 mmHg 72%
19:00 +18°C° 0.1 mm 1 mps 617 mmHg 76%
20:00 +15°C° 0.1 mm 1 mps 617 mmHg 80%
21:00 +14°C° 0.1 mm 1 mps 617 mmHg 84%
22:00 +14°C° 0 mm 1 mps 617 mmHg 85%
23:00 +13°C° 0 mm 1 mps 617 mmHg 85%

16 August, Sunday

Time Temperature Precipitation Wind Pressure Humidity
00:00 +12°C° 0 mm 0 mps 617 mmHg 86%
01:00 +11°C° 0 mm 0 mps 616 mmHg 87%
02:00 +11°C° 0 mm 0 mps 616 mmHg 88%
03:00 +11°C° 0 mm 0 mps 616 mmHg 89%
04:00 +11°C° 0 mm 0 mps 616 mmHg 89%
05:00 +11°C° 0 mm 0 mps 616 mmHg 89%
06:00 +11°C° 0 mm 0 mps 617 mmHg 89%
07:00 +14°C° 0 mm 1 mps 617 mmHg 79%
08:00 +16°C° 0 mm 1 mps 618 mmHg 69%
09:00 +17°C° 0 mm 2 mps 619 mmHg 59%
10:00 +18°C° 0 mm 2 mps 620 mmHg 54%
11:00 +19°C° 0 mm 3 mps 620 mmHg 50%
12:00 +20°C° 0 mm 3 mps 620 mmHg 45%
13:00 +20°C° 0 mm 3 mps 620 mmHg 46%
14:00 +20°C° 0 mm 3 mps 620 mmHg 47%
15:00 +19°C° 0 mm 3 mps 619 mmHg 47%
16:00 +18°C° 0 mm 2 mps 619 mmHg 53%
17:00 +17°C° 0 mm 2 mps 618 mmHg 59%
18:00 +16°C° 0 mm 1 mps 618 mmHg 65%
19:00 +14°C° 0 mm 1 mps 618 mmHg 70%
20:00 +13°C° 0 mm 1 mps 617 mmHg 74%
21:00 +11°C° 0 mm 0 mps 617 mmHg 79%
22:00 +11°C° 0 mm 1 mps 617 mmHg 79%
23:00 +11°C° 0 mm 1 mps 617 mmHg 79%

17 August, Monday

Time Temperature Precipitation Wind Pressure Humidity
00:00 +11°C° 0 mm 1 mps 616 mmHg 79%
01:00 +11°C° 0 mm 1 mps 616 mmHg 79%
02:00 +11°C° 0 mm 1 mps 616 mmHg 79%
03:00 +11°C° 0 mm 1 mps 616 mmHg 79%
04:00 +11°C° 0 mm 1 mps 616 mmHg 79%
05:00 +11°C° 0 mm 1 mps 617 mmHg 80%
06:00 +12°C° 0 mm 1 mps 617 mmHg 80%
07:00 +14°C° 0 mm 1 mps 618 mmHg 70%
08:00 +16°C° 0 mm 1 mps 619 mmHg 59%
09:00 +19°C° 0 mm 2 mps 620 mmHg 48%
10:00 +19°C° 0 mm 2 mps 620 mmHg 47%
11:00 +20°C° 0 mm 3 mps 620 mmHg 46%
12:00 +21°C° 0 mm 3 mps 620 mmHg 44%
13:00 +19°C° 0.9 mm 3 mps 620 mmHg 55%
14:00 +18°C° 0.9 mm 2 mps 619 mmHg 65%
15:00 +17°C° 0.9 mm 2 mps 618 mmHg 76%
16:00 +16°C° 0.7 mm 1 mps 618 mmHg 80%
17:00 +15°C° 0.7 mm 1 mps 618 mmHg 84%
18:00 +14°C° 0.7 mm 1 mps 617 mmHg 89%
19:00 +13°C° 0.1 mm 1 mps 618 mmHg 90%
20:00 +12°C° 0.1 mm 1 mps 618 mmHg 91%
21:00 +11°C° 0.1 mm 1 mps 618 mmHg 92%
22:00 +11°C° 0 mm 1 mps 618 mmHg 92%
23:00 +11°C° 0 mm 1 mps 618 mmHg 92%
Show more